This is the latest recevied weather packets stored in our database for station/object WI0K. If no packets are shown the sender has not sent any weather packets the latest 10 day(s).
| Time | Temp. | Humidity | Pressure | Rain* | Wind** | Luminosity | Snow |
|---|---|---|---|---|---|---|---|
| 1788154741 | 20° C | 61% | 1021.5 hPa | 0 mm | - | 0 W/m² | - |
| 1788154440 | 20.56° C | 61% | 1021.6 hPa | 0 mm | - | 0 W/m² | - |
| 1788154139 | 20.56° C | 60% | 1021.8 hPa | 0 mm | - | 0 W/m² | - |
| 1788153838 | 20.56° C | 59% | 1021.8 hPa | 0 mm | - | 0 W/m² | - |
| 1788153538 | 21.11° C | 57% | 1021.8 hPa | 0 mm | - | 0 W/m² | - |
| 1788153237 | 21.11° C | 57% | 1021.8 hPa | 0 mm | - | 0 W/m² | - |
| 1788152936 | 21.11° C | 55% | 1021.8 hPa | 0 mm | - | 0 W/m² | - |
| 1788152636 | 21.11° C | 54% | 1021.7 hPa | 0 mm | - | 0 W/m² | - |
| 1788152335 | 21.11° C | 54% | 1021.7 hPa | 0 mm | - | 0 W/m² | - |
| 1788152035 | 21.11° C | 54% | 1021.6 hPa | 0 mm | - | 0 W/m² | - |
| 1788151734 | 21.11° C | 53% | 1021.5 hPa | 0 mm | - | 0 W/m² | - |
| 1788151433 | 20.56° C | 54% | 1021.4 hPa | 0 mm | - | 0 W/m² | - |
| 1788151133 | 20° C | 60% | 1021.1 hPa | 0 mm | - | 0 W/m² | - |
| 1788150832 | 20° C | 65% | 1021.1 hPa | 0 mm | - | 0 W/m² | - |
| 1788150531 | 20° C | 64% | 1020.7 hPa | 0 mm | - | 0 W/m² | - |
| 1788150231 | 20° C | 63% | 1020.7 hPa | 0 mm | - | 0 W/m² | - |
| 1788149930 | 20° C | 65% | 1020.8 hPa | 0 mm | - | 0 W/m² | - |
| 1788149629 | 20° C | 63% | 1020.8 hPa | 0 mm | - | 0 W/m² | - |
| 1788149329 | 20° C | 63% | 1020.8 hPa | 0 mm | - | 0 W/m² | - |
| 1788149028 | 20° C | 64% | 1020.8 hPa | 0 mm | - | 0 W/m² | - |
| 1788148727 | 20° C | 63% | 1020.8 hPa | 0 mm | - | 0 W/m² | - |
| 1788148426 | 20° C | 63% | 1020.9 hPa | 0 mm | - | 0 W/m² | - |
| 1788148126 | 20° C | 63% | 1020.9 hPa | 0 mm | - | 0 W/m² | - |
| 1788147825 | 20° C | 63% | 1021 hPa | 0 mm | - | 0 W/m² | - |
| 1788147525 | 20° C | 63% | 1021 hPa | 0 mm | - | 0 W/m² | - |
* Rain latest hour (hover to see other rain measurements)
** Current wind speed in m/s (hover to see current wind gust speed)